CZ-3B R/B, 44796

Orbit data source: Space-Track

CZ-3B R/B, 44796 is space debris in HEO originally from a launch on Sat, 23 Nov 2019 UTC launched from the Xichang Space Center, China (XSC). Debris objects in space refer to the collection of defunct objects orbiting the Earth. Examples of debris include non-operational satellites, rocket bodies, and fragments generated from explosions, collisions, or faulty payload assembly.

Loading next visibility...
Identifier
44796, 2019-078D
Orbit
HEO
Country
Flag of CNCN / PRC
Related business
Manufacturer
CALT
Mission
Spacecraft
Bus & Motor
CZ-3A STAGE 3, Unknown motor
Mass
~2,800 kg wet, ~2,800 kg dry
Launch date (UTC)
2019-11-23 (7 years ago)
Launch vehicle
Unknown
Launch site
Xichang Space Center, China (XSC)
Object type
Payload
Rocket body
Debris
Shape & HBR
Cyl + 1 Nozzle, 6.2 m
Radar Cross Section
32.704 m², Large (>1 m²)

Expand to show TLE details & history
Last TLE update: 3 days ago

TLE from 3 days ago
0 CZ-3B R/B
1 44796U 19078D   26170.91051415  .00000091  00000-0  15968-3 0  9999
2 44796  54.9550  27.9989 5405220 265.6400  33.9571  4.81636595113588
Epoch: 2026-06-19T21:51Z
TLE epoch observation values (Epoch: 2026-06-19T21:51:08.422Z)
Latitude
-0.00007°
Longitude
152.0952°
Altitude
4,563.803 km
Speed
6.779 km/s
True Right ascension
01h 52m 03s
True Declination
0° 00' 00"
Sunlit
Object was in daylight at epoch
Visualization orbit readout
Latitude
Unknown
Longitude
Unknown
Altitude
Unknown
Speed
Unknown
Apparent Right ascension
Unknown
Apparent Declination
Unknown
Sunlit
N/A
Visualization observer readout
Local Sidereal Time
21:35:23
Azimuth
Unknown
Elevation
Unknown
Doppler factor
Unknown
Orbital elements
Apogee altitude
16,438.742 km
Perigee altitude
427.254 km
Semi-major axis
14,811.135 km
Eccentricity
0.54052
Inclination
54.955°
RAAN
27.9989°
Arg. of periapsis
265.64°
True anomaly
94.39728°
Mean anomaly
33.9571°
Eccentric anomaly
61.05926°
Mean motion
1.20409 °/min
Orbital period
298.98 mins
BSTAR
0.00015968
Loading maneuver chart data...
Computing Atmospheric mass density...
Loading historical data...
Loading historical data...
Loading historical data...
Loading historical data...
Loading historical data...
Loading historical data...
Loading historical data...
Other satellites on launch #78 in the year 2019 (2019-11-23 UTC)

Documentation

Showing up to 5 results
|